Skip Page Navigation
NASA JPL Caltech
NASA Logo - Jet Propulsion Laboratory + View the NASA Portal
+ Near-Earth Object (NEO) Program
Search JPL
JPL Home Earth Solar System Stars & Galaxies Technology
JPL Solar System Dynamics
BODIES ORBITS EPHEMERIDES TOOLS PHYSICAL DATA DISCOVERY FAQ SITE MAP
JPL Small-Body Database Browser
Search: [ help ]  
7007 Timjull (1981 EK34)
Classification: Main-belt Asteroid          SPK-ID: 2007007
Ephemeris | Orbit Diagram | Orbital Elements | Physical Parameters | Discovery Circumstances | Close-Approach Data ]

[ show orbit diagram ]
Orbital Elements at Epoch 2456800.5 (2014-May-23.0) TDB
Reference: JPL 10 (heliocentric ecliptic J2000)
 Element Value Uncertainty (1-sigma)   Units 
e .1545043262164809 5.0503e-08  
a 2.402350698081011 1.7074e-08 AU
q 2.031177122138311 1.2272e-07 AU
i .7271008282816507 6.0226e-06 deg
node 349.3061908821354 0.000413 deg
peri 264.05075593421 0.00041361 deg
M 268.8811211231578 2.534e-05 deg
tp 2457144.738074193131
(2015-May-02.23807419)
9.7432e-05 JED
period 1360.044243707468
3.72
1.45e-05
3.97e-08
d
yr
n .2646972711848281 2.822e-09 deg/d
Q 2.77352427402371 1.9713e-08 AU
  Orbit Determination Parameters
   # obs. used (total)      877  
   data-arc span      13100 days (35.87 yr)  
   first obs. used      1978-07-09  
   last obs. used      2014-05-21  
   planetary ephem.      DE431  
   SB-pert. ephem.      SB431-BIG16  
   condition code      0  
   fit RMS      .5633  
   data source      ORB  
   producer      Otto Matic  
   solution date      2014-Jun-16 13:36:05  

Additional Information
 Earth MOID = 1.01666 AU 
 T_jup = 3.508 
[ show covariance matrix ]

Ephemeris | Orbit Diagram | Orbital Elements | Physical Parameters | Discovery Circumstances | Close-Approach Data ]

Physical Parameter Table
Parameter Symbol Value Units Sigma Reference Notes
absolute magnitude H 15.0 mag n/a MPO279588  

7007 Timjull           Discovered 1981 Mar. 2 by S. J. Bus at Siding Spring in the course of the U.K. Schmidt-Caltech Asteroid Survey.
A. J. Timothy Jull (b. 1951) is a senior research scientist at the University of Arizona. In addition to running a world-class laboratory for the measurement of terrestrial ages of meteorites, he is the editor of the journal Meteoritics and Planetary Science.
NOTE: some special characters may not display properly (any characters within {} are an attempt to place the proper accent above a character)
Reference: 20060809/MPCPages.arcLast Updated: 2007-08-08

[ show close-approach data ]
Ephemeris | Orbit Diagram | Orbital Elements | Physical Parameters | Discovery Circumstances | Close-Approach Data ]
ABOUT SSD CREDITS/AWARDS PRIVACY/COPYRIGHT GLOSSARY LINKS
FirstGov 2014-Jul-23 10:03 UT
(server date/time)  
NASA Home Page
Site Manager:   Donald K. Yeomans
Webmaster  Alan B. Chamberlin